Terug naar catalogus

COSMOS 1275 DEB

ActiefPO
NORAD 42099·DEBRIS·🇷🇺 Russia

Gelanceerd Jun 4, 1981 vanaf Plesetsk Cosmodrome

Loading…

Volgende Passages (komende 24 uur)

TLE

VerouderendSource: Space-Track

Epoch: Sep 7, 2026, 12:35 UTC

1 42099U 81053PK  26250.52440468  .00002356  00000-0  82646-3 0  9994
2 42099  82.8547 322.8043 0030042 127.9932 232.3977 14.34452427548280

Volg COSMOS 1275 DEB in realtime met AllMySat

Download on the App Store